星链-3231 (STARLINK-3231 )

导读 | 星芒AI

STARLINK-3231 是 SpaceX 星链计划中的一颗低轨通信卫星,属于第 11 批星链卫星组(v1.5 版本)。该卫星于 2023 年发射,运行在约 550 公里的轨道高度,旨在为全球提供高速互联网服务。它采用先进的推进系统和激光通信技术,提升网络稳定性和数据传输效率。作为星链星座的一部分,STARLINK-3231 有助于扩大覆盖范围,特别是在偏远和网络基础设施薄弱的地区。

基本信息
目录编号:
49744
目录名称:
STARLINK-3231
国际标识:
2021-115W
轨道中心:
EARTH
卫星名称:
星链-3231
卫星全名:
星链-3231 (STARLINK-3231 )
卫星状态:
在轨 (已飞行1479 天)
发射日期:
2021-12-02 UTC
国别 :
美国 (US)
星等 :
--
轨道信息
数据来源 国际轨道数据
星历时间: 2025-12-20T05:00:17+0800
11小时前
查看轨道信息
半长轴: 6917.891km
偏心率: 0.0000826
轨道倾角: 53.217°
近地点辐角 96.538°
升交点赤经 147.316°
平近点角 263.570°
近地点: 539.182km
远地点: 540.326km
周期: 95.438分钟
每日圈数: 15.088367
详细信息
固有亮度:
5
最大亮度:
2.5
卫星平台:
Starlink v1.5
覆盖范围:
全球
运营商:
太空探索技术公司
运营商所在国:
美国
制造商(研发单位):
太空探索技术公司
制造商所在国:
美国
使用方式:
暂无
卫星简介
星链(Starlink)计划是由太空探索技术公司(SpaceX)提出的一个巨型低轨卫星互联网星座项目,计划在2019年至2024年间在太空搭建由约1.2万颗卫星组成的“星链”网络,其中1584颗将部署在地球上空550千米处的近地轨道,并从2020年开始工作。该卫星仍在工作。
2D轨道图
3D轨道图
轨道高度分析图
轨道倾角分析图
轨道综合分析图
查看轨道综合分析图